Location: Casteau
(50.5142°N, 4.0161°E)
Time: 06:22:11
(UTC+00:00)

Cosmos 2266 Rocket - Pass Details

Date: 18 September 2020
Orbit: 934 x 1008 km, 82.9° (Epoch: 27 October)

Event Time Altitude Azimuth Distance (km) Brightness Sun altitude
Rises 20:57:26 0° 351° (N) 3,620 7.7 -27.8°
Reaches altitude 10° 20:59:58 10° 355° (N) 2,665 6.9 -28.1°
Enters shadow 21:05:32 63° 51° (NE) 1,040 4.0 -28.8°
